FW2665 Weather Reports


Display with metric or nautical units.
time (UTC)temp
F
wind
direction
speed
MPH
gust
MPH
rain 1hr
in
rain 24hr
in
rain mn
in
humidity
%
barometer
mb
20260506231504 56 278 13.0 18.0 0.00 0.00 0.00 32 1015.4
20260506231004 56 278 13.0 22.0 0.00 0.00 0.00 32 1015.5
20260506230504 57 268 14.0 22.0 0.00 0.00 0.00 30 1015.4
20260506230004 58 267 18.0 22.0 0.00 0.00 0.00 29 1015.4
20260506225505 57 272 17.0 22.0 0.00 0.00 0.00 30 1015.4
20260506225004 57 270 14.0 22.0 0.00 0.00 0.00 31 1015.4
20260506224506 57 257 17.0 22.0 0.00 0.00 0.00 31 1015.5
20260506224004 57 278 13.0 20.0 0.00 0.00 0.00 33 1015.5
20260506223505 57 295 11.0 18.0 0.00 0.00 0.00 34 1015.6
20260506223004 56 281 13.0 22.0 0.00 0.00 0.00 32 1015.7
20260506222504 55 273 14.0 22.0 0.00 0.00 0.00 33 1015.8
20260506222004 56 292 17.0 21.0 0.00 0.00 0.00 31 1015.9
20260506221504 56 273 13.0 20.0 0.00 0.00 0.00 33 1015.9
20260506221004 56 296 13.0 20.0 0.00 0.00 0.00 32 1016.0
20260506220003 55 289 12.0 24.0 0.00 0.00 0.00 32 1016.1
20260506214504 55 284 14.0 23.0 0.00 0.00 0.00 33 1016.2
20260506214006 55 282 13.0 21.0 0.00 0.00 0.00 32 1016.4
20260506213503 55 302 16.0 21.0 0.00 0.00 0.00 32 1016.4
20260506213004 56 291 14.0 21.0 0.00 0.00 0.00 32 1016.4
20260506212003 55 286 18.0 23.0 0.00 0.00 0.00 33 1016.6
20260506211504 55 284 12.0 22.0 0.00 0.00 0.00 34 1016.6
20260506211003 56 299 14.0 28.0 0.00 0.00 0.00 34 1016.7
20260506210504 57 296 17.0 28.0 0.00 0.00 0.00 32 1016.7
20260506210003 56 300 9.0 18.0 0.00 0.00 0.00 35 1016.8
20260506205503 56 274 13.0 22.0 0.00 0.00 0.00 34 1016.9
20260506205004 55 311 13.0 24.0 0.00 0.00 0.00 35 1016.9
20260506204504 55 282 16.0 24.0 0.00 0.00 0.00 34 1017.0
20260506204004 56 315 14.0 23.0 0.00 0.00 0.00 32 1017.0
20260506203504 57 309 15.0 23.0 0.00 0.00 0.00 34 1017.1
20260506203004 56 302 13.0 20.0 0.00 0.00 0.00 35 1017.1
20260506202503 56 305 12.0 20.0 0.00 0.00 0.00 35 1017.2
20260506202003 56 301 13.0 25.0 0.00 0.00 0.00 34 1017.2
20260506201503 56 283 14.0 25.0 0.00 0.00 0.00 35 1017.3
20260506201004 56 283 9.0 25.0 0.00 0.00 0.00 35 1017.3
20260506200504 55 264 16.0 25.0 0.00 0.00 0.00 32 1017.3
20260506200004 55 301 11.0 23.0 0.00 0.00 0.00 35 1017.3
20260506195503 55 293 16.0 26.0 0.00 0.00 0.00 33 1017.3
20260506195005 56 308 18.0 26.0 0.00 0.00 0.00 34 1017.4
20260506194504 55 305 15.0 26.0 0.00 0.00 0.00 35 1017.4
20260506194004 55 306 17.0 26.0 0.00 0.00 0.00 33 1017.4
20260506193504 55 263 14.0 25.0 0.00 0.00 0.00 33 1017.5
20260506193004 56 310 14.0 25.0 0.00 0.00 0.00 34 1017.5
20260506192504 55 307 18.0 25.0 0.00 0.00 0.00 38 1017.4
20260506191504 54 318 10.0 26.0 0.00 0.00 0.00 35 1017.6
20260506190504 56 312 16.0 24.0 0.00 0.00 0.00 38 1017.7
20260506190004 55 292 17.0 24.0 0.00 0.00 0.00 39 1017.7
20260506185503 56 308 13.0 26.0 0.00 0.00 0.00 36 1017.9
20260506185004 55 286 12.0 26.0 0.00 0.00 0.00 39 1017.9
20260506184504 54 322 11.0 25.0 0.00 0.00 0.00 37 1018.0
20260506184003 54 296 18.0 25.0 0.00 0.00 0.00 40 1018.0
20260506183005 52 308 14.0 22.0 0.00 0.00 0.00 41 1018.2
20260506182504 52 304 12.0 24.0 0.00 0.00 0.00 41 1018.2
20260506182004 53 294 18.0 24.0 0.00 0.00 0.00 39 1018.2
20260506181004 53 282 16.0 26.0 0.00 0.00 0.00 42 1018.3
20260506180504 53 277 18.0 24.0 0.00 0.00 0.00 38 1018.4
20260506180005 54 310 15.0 23.0 0.00 0.00 0.00 39 1018.4
20260506175504 54 312 14.0 23.0 0.00 0.00 0.00 38 1018.5
20260506175004 54 290 16.0 23.0 0.00 0.00 0.00 38 1018.4
20260506174504 54 284 13.0 24.0 0.00 0.00 0.00 40 1018.5
20260506174004 53 262 17.0 24.0 0.00 0.00 0.00 40 1018.7
20260506173503 53 306 14.0 22.0 0.00 0.00 0.00 42 1018.7
20260506172004 52 315 15.0 31.0 0.00 0.00 0.00 44 1018.9
20260506171006 52 322 11.0 23.0 0.00 0.00 0.00 44 1018.9
20260506170504 53 299 14.0 29.0 0.00 0.00 0.00 44 1019.0
20260506170004 53 300 17.0 29.0 0.00 0.00 0.00 44 1019.0
20260506165503 52 279 16.0 22.0 0.00 0.00 0.00 43 1019.1
20260506165004 52 301 12.0 21.0 0.00 0.00 0.00 48 1019.2
20260506164504 51 285 17.0 21.0 0.00 0.00 0.00 45 1019.2
20260506164004 51 303 13.0 22.0 0.00 0.00 0.00 45 1019.2
20260506163503 51 306 12.0 22.0 0.00 0.00 0.00 45 1019.3
20260506163004 51 309 10.0 21.0 0.00 0.00 0.00 48 1019.4
20260506162503 51 279 14.0 21.0 0.00 0.00 0.00 45 1019.5
20260506162005 50 302 10.0 20.0 0.00 0.00 0.00 46 1019.4
20260506161504 50 282 14.0 20.0 0.00 0.00 0.00 47 1019.4
20260506161006 49 280 13.0 18.0 0.00 0.00 0.00 48 1019.4
20260506160504 49 295 12.0 18.0 0.00 0.00 0.00 49 1019.6
20260506160004 49 277 11.0 16.0 0.00 0.00 0.00 50 1019.5
20260506155504 48 310 12.0 15.0 0.00 0.00 0.00 51 1019.6
20260506155004 48 297 9.0 15.0 0.00 0.00 0.00 50 1019.6
20260506154504 48 258 10.0 14.0 0.00 0.00 0.00 51 1019.7
20260506153004 47 297 7.0 17.0 0.00 0.00 0.00 53 1019.8
20260506152004 46 274 9.0 17.0 0.00 0.00 0.00 53 1019.9
20260506151504 46 309 6.0 15.0 0.00 0.00 0.00 54 1019.9
20260506151004 46 274 10.0 15.0 0.00 0.00 0.00 53 1019.9
20260506150504 46 281 7.0 12.0 0.00 0.00 0.00 54 1019.9
20260506150004 46 342 6.0 10.0 0.00 0.00 0.00 55 1020.0
20260506145504 45 309 7.0 12.0 0.00 0.00 0.00 56 1020.0
20260506145004 45 295 6.0 12.0 0.00 0.00 0.00 57 1020.0
20260506144504 44 271 7.0 12.0 0.00 0.00 0.00 60 1020.0
20260506144004 44 264 4.0 9.0 0.00 0.00 0.00 59 1020.1
20260506143504 43 280 5.0 10.0 0.00 0.00 0.00 60 1020.1
20260506143004 43 293 7.0 10.0 0.00 0.00 0.00 61 1020.1
20260506142504 42 280 5.0 10.0 0.00 0.00 0.00 63 1020.1
20260506141503 41 278 5.0 9.0 0.00 0.00 0.00 70 1020.1
20260506141004 41 299 4.0 9.0 0.00 0.00 0.00 70 1020.2
20260506140504 40 273 5.0 9.0 0.00 0.00 0.00 71 1020.2
20260506140003 39 257 5.0 7.0 0.00 0.00 0.00 73 1020.2
20260506135503 39 279 5.0 7.0 0.00 0.00 0.00 72 1020.1
20260506135004 38 277 5.0 7.0 0.00 0.00 0.00 75 1020.1
20260506134504 37 262 5.0 7.0 0.00 0.00 0.00 75 1020.1
20260506134003 36 256 5.0 6.0 0.00 0.00 0.00 77 1020.0
20260506133503 35 264 3.0 5.0 0.00 0.00 0.00 81 1020.0
20260506133004 34 293 3.0 6.0 0.00 0.00 0.00 82 1019.9
20260506132004 33 282 3.0 5.0 0.00 0.00 0.00 83 1019.9
20260506131504 33 304 2.0 3.0 0.00 0.00 0.00 84 1019.8
20260506131003 32 287 3.0 3.0 0.00 0.00 0.00 84 1019.7
20260506130504 32 289 2.0 3.0 0.00 0.00 0.00 85 1019.7
20260506130005 31 311 2.0 3.0 0.00 0.00 0.00 86 1019.7
20260506125004 30 284 3.0 3.0 0.00 0.00 0.00 86 1019.5
20260506124504 30 300 2.0 3.0 0.00 0.00 0.00 86 1019.5
20260506124004 30 284 2.0 3.0 0.00 0.00 0.00 87 1019.5
20260506123506 29 261 2.0 3.0 0.00 0.00 0.00 87 1019.4
20260506123004 29 261 3.0 3.0 0.00 0.00 0.00 87 1019.4
20260506122503 28 261 3.0 3.0 0.00 0.00 0.00 87 1019.4
20260506121503 28 256 2.0 3.0 0.00 0.00 0.00 87 1019.2
20260506121004 27 253 3.0 3.0 0.00 0.00 0.00 87 1019.2
20260506120503 27 232 2.0 3.0 0.00 0.00 0.00 87 1019.0
20260506120004 27 232 2.0 3.0 0.00 0.00 0.00 88 1019.0
20260506115503 27 232 2.0 3.0 0.00 0.00 0.00 87 1019.0
20260506115004 27 232 1.0 2.0 0.00 0.00 0.00 87 1018.8
20260506114503 27 232 1.0 2.0 0.00 0.00 0.00 87 1018.7
20260506114005 27 232 2.0 3.0 0.00 0.00 0.00 87 1018.7
20260506113004 27 232 2.0 3.0 0.00 0.00 0.00 87 1018.7
20260506112504 27 232 3.0 3.0 0.00 0.00 0.00 88 1018.7
20260506112004 26 232 2.0 3.0 0.00 0.00 0.00 88 1018.6
20260506111504 26 232 2.0 3.0 0.00 0.00 0.00 88 1018.6
20260506111004 26 232 3.0 5.0 0.00 0.00 0.00 88 1018.6
20260506110504 25 232 3.0 5.0 0.00 0.00 0.00 87 1018.6
20260506110004 25 232 3.0 6.0 0.00 0.00 0.00 87 1018.6
20260506104504 24 228 5.0 5.0 0.00 0.00 0.00 83 1018.5
20260506104004 24 291 2.0 3.0 0.00 0.00 0.00 82 1018.4
20260506103504 25 291 0.0 3.0 0.00 0.00 0.00 81 1018.3
20260506103004 26 291 1.0 3.0 0.00 0.00 0.00 82 1018.2
20260506102504 26 291 1.0 3.0 0.00 0.00 0.00 85 1018.2
20260506102004 26 291 2.0 3.0 0.00 0.00 0.00 85 1018.1
20260506101503 25 291 3.0 3.0 0.00 0.00 0.00 84 1018.1
20260506100503 26 291 2.0 3.0 0.00 0.00 0.00 83 1018.2
20260506095503 26 291 2.0 6.0 0.00 0.00 0.00 81 1018.1
20260506095003 26 291 3.0 8.0 0.00 0.00 0.00 80 1018.1
20260506094503 27 245 6.0 8.0 0.00 0.00 0.00 78 1018.2
20260506094004 28 285 2.0 3.0 0.00 0.00 0.00 82 1018.2
20260506093504 28 317 2.0 3.0 0.00 0.00 0.00 81 1018.1
20260506093004 28 319 2.0 3.0 0.00 0.00 0.00 80 1018.0
20260506092504 28 327 2.0 3.0 0.00 0.00 0.00 80 1018.0
20260506092004 28 324 2.0 3.0 0.00 0.00 0.00 80 1017.9
20260506091506 29 322 2.0 3.0 0.00 0.00 0.00 79 1018.0
20260506091004 29 314 3.0 3.0 0.00 0.00 0.00 79 1018.0
20260506090504 29 313 3.0 3.0 0.00 0.00 0.00 79 1017.8
20260506090004 29 323 2.0 3.0 0.00 0.00 0.00 79 1017.7
20260506085504 29 322 3.0 5.0 0.00 0.00 0.00 79 1017.5
20260506085006 29 316 3.0 5.0 0.00 0.00 0.00 79 1017.6
20260506084504 29 310 3.0 5.0 0.00 0.00 0.00 79 1017.7
20260506084005 29 309 3.0 3.0 0.00 0.00 0.00 78 1017.7
20260506083004 29 299 3.0 5.0 0.00 0.00 0.00 78 1017.9
20260506082504 29 294 4.0 5.0 0.00 0.00 0.00 78 1018.0
20260506082004 29 297 5.0 5.0 0.00 0.00 0.00 78 1018.0
20260506081504 29 288 3.0 5.0 0.00 0.00 0.00 77 1018.0
20260506081005 29 278 3.0 5.0 0.00 0.00 0.00 77 1018.0
20260506080504 29 268 5.0 5.0 0.00 0.00 0.00 77 1018.0
20260506073504 32 316 5.0 6.0 0.00 0.00 0.00 73 1017.3
20260506073003 32 321 5.0 6.0 0.00 0.00 0.00 73 1017.2
20260506072504 32 319 3.0 6.0 0.00 0.00 0.00 74 1017.1
20260506072003 31 326 5.0 6.0 0.00 0.00 0.00 75 1017.2
20260506071004 31 307 3.0 5.0 0.00 0.00 0.00 74 1017.1
20260506070504 31 304 3.0 5.0 0.00 0.00 0.00 74 1017.2
20260506062505 32 307 2.0 3.0 0.00 0.00 0.00 74 1017.5
20260506062004 32 338 1.0 3.0 0.00 0.00 0.00 73 1017.5
20260506061506 31 355 1.0 3.0 0.00 0.00 0.00 74 1017.4
20260506061004 31 342 1.0 3.0 0.00 0.00 0.00 75 1017.3
20260506060504 30 334 1.0 3.0 0.00 0.00 0.00 77 1017.3
20260506050504 32 344 1.0 2.0 0.00 0.00 0.00 66 1016.5
20260506045004 35 345 1.0 3.0 0.00 0.00 0.00 61 1016.5
20260506044504 36 345 1.0 3.0 0.00 0.00 0.00 61 1016.7
20260506044004 37 342 2.0 3.0 0.00 0.00 0.00 61 1016.6
20260506043503 37 335 2.0 3.0 0.00 0.00 0.00 62 1016.7
20260506043004 36 335 2.0 3.0 0.00 0.00 0.00 62 1016.9
20260506042503 36 345 3.0 3.0 0.00 0.00 0.00 62 1016.9
20260506042004 36 340 3.0 5.0 0.00 0.00 0.00 63 1016.9
20260506041504 36 342 3.0 5.0 0.00 0.00 0.00 63 1016.9
20260506041004 36 340 2.0 3.0 0.00 0.00 0.00 62 1016.9
20260506040503 36 334 2.0 3.0 0.00 0.00 0.00 62 1016.9
20260506040004 36 331 2.0 3.0 0.00 0.00 0.00 62 1016.9
20260506035004 35 325 2.0 3.0 0.00 0.00 0.00 63 1016.9
20260506034504 36 317 2.0 3.0 0.00 0.00 0.00 62 1017.0
20260506034004 36 322 2.0 3.0 0.00 0.00 0.00 62 1016.9
20260506033504 37 319 2.0 3.0 0.00 0.00 0.00 61 1017.0
20260506032504 38 327 3.0 5.0 0.00 0.00 0.00 58 1016.7
20260506031503 39 332 3.0 5.0 0.00 0.00 0.00 57 1016.7
20260506031004 39 333 3.0 3.0 0.00 0.00 0.00 57 1016.6
20260506030504 39 332 2.0 5.0 0.00 0.00 0.00 56 1016.6
20260506030004 39 338 3.0 5.0 0.00 0.00 0.00 56 1016.5
20260506025503 39 340 3.0 6.0 0.00 0.00 0.00 56 1016.4
20260506025004 39 348 3.0 6.0 0.00 0.00 0.00 56 1016.3
20260506024503 39 339 3.0 6.0 0.00 0.00 0.00 57 1016.3
20260506024004 38 347 3.0 6.0 0.00 0.00 0.00 57 1016.1
20260506023004 38 331 2.0 3.0 0.00 0.00 0.00 58 1016.0
20260506022504 38 323 2.0 3.0 0.00 0.00 0.00 58 1016.0
20260506021504 39 329 2.0 3.0 0.00 0.00 0.00 57 1015.8
20260506021004 40 319 2.0 3.0 0.00 0.00 0.00 56 1015.7
20260506020503 41 330 2.0 6.0 0.00 0.00 0.00 55 1015.5
20260506020004 41 339 2.0 6.0 0.00 0.00 0.00 54 1015.5
20260506015504 41 348 3.0 7.0 0.00 0.00 0.00 52 1015.4
20260506015004 42 336 3.0 7.0 0.00 0.00 0.00 52 1015.5
20260506014504 42 344 5.0 7.0 0.00 0.00 0.00 52 1015.4
20260506014004 42 347 5.0 7.0 0.00 0.00 0.00 52 1015.4
20260506013004 43 340 4.0 6.0 0.00 0.00 0.00 50 1015.2
20260506012504 43 337 3.0 8.0 0.00 0.00 0.00 50 1015.1
20260506012004 44 335 3.0 8.0 0.00 0.00 0.00 49 1015.1
20260506011504 44 331 5.0 9.0 0.00 0.00 0.00 48 1015.0
20260506011004 44 333 5.0 10.0 0.00 0.00 0.00 48 1014.9
20260506010503 45 336 5.0 12.0 0.00 0.00 0.00 47 1014.8
20260506010004 45 335 6.0 12.0 0.00 0.00 0.00 47 1014.8
20260506004504 47 331 9.0 14.0 0.00 0.00 0.00 42 1014.6
20260506004004 47 332 8.0 16.0 0.00 0.00 0.00 42 1014.5
20260506003504 47 335 9.0 16.0 0.00 0.00 0.00 42 1014.5
20260506003004 48 328 10.0 21.0 0.00 0.00 0.00 41 1014.4
20260506002504 48 329 10.0 21.0 0.00 0.00 0.00 41 1014.4
20260506002004 48 316 13.0 21.0 0.00 0.00 0.00 42 1014.4
20260506001503 48 336 8.0 17.0 0.00 0.00 0.00 42 1014.5
20260506000504 48 340 10.0 22.0 0.00 0.00 0.00 41 1014.5
20260506000004 48 331 15.0 22.0 0.00 0.00 0.00 41 1014.4
20260505235504 49 315 14.0 18.0 0.00 0.00 0.00 41 1014.3
20260505235004 49 327 11.0 18.0 0.00 0.00 0.00 38 1014.3
20260505234504 50 336 11.0 20.0 0.00 0.00 0.00 40 1014.3
20260505234004 50 309 12.0 22.0 0.00 0.00 0.00 39 1014.2
20260505233504 50 315 11.0 22.0 0.00 0.00 0.00 39 1014.2
20260505233006 50 323 12.0 20.0 0.00 0.00 0.00 41 1014.2
20260505232503 51 331 13.0 22.0 0.00 0.00 0.00 38 1014.2
20260505232004 51 325 14.0 22.0 0.00 0.00 0.00 40 1014.2